Pleasanton, CA

4:23 PM PDT on September 25, 2016 (GMT -0700)
Livermore Municipal

Weather History for KLVK - June, 2014

Change the Weather History Date:

Monday, June 9, 2014

  Actual Average Record
Temperature  
Mean Temperature 86 °F 66 °F  
Max Temperature 106 °F 79 °F 106 °F (2014)
Min Temperature 65 °F 53 °F 40 °F (1946)
Degree Days  
Heating Degree Days 0 1  
Month to date heating degree days 1 16  
Since 1 June heating degree days 1 16  
Since 1 July heating degree days 1895 2764  
Cooling Degree Days 21 2  
Month to date cooling degree days 79 18  
Year to date cooling degree days 205 71  
Since 1 June cooling degree days 79 18  
Growing Degree Days 36 (Base 50)    
Moisture  
Dew Point 47 °F    
Average Humidity 32    
Maximum Humidity 53    
Minimum Humidity 11    
Precipitation  
Precipitation 0.00 in 0.00 in 0.32 in (1970)
Month to date precipitation 0.00 0.03  
Year to date precipitation 4.88 9.89  
Since 1 July precipitation 7.26  
Sea Level Pressure  
Sea Level Pressure 29.69 in    
Wind  
Wind Speed 6 mph (WNW)    
Max Wind Speed 18 mph    
Max Gust Speed 23 mph    
Visibility 10 miles    
Events      
T = Trace of Precipitation, MM = Missing Value Source: NWS Daily Summary

Daily Weather History Graph

Daily Weather History Graph

Search for Another Location

Airport or City:

Trip Planner

Search our weather history database for the weather conditions in past years. The results will help you decide how hot, cold, wet, or windy it might be!

Date:

Astronomy

Jun. 09, 2014 Rise Set
Actual Time 5:45 AM PDT 8:28 PM PDT
Civil Twilight 5:14 AM PDT 8:59 PM PDT
Nautical Twilight 4:35 AM PDT 9:37 PM PDT
Astronomical Twilight 3:51 AM PDT 10:21 PM PDT
Moon 4:58 PM PDT (6/9) 3:11 AM PDT (6/9)
Length of Visible Light 15h 44m
Length of Day
14h 42m
Waxing Gibbous, 86% of the Moon is Illuminated
Jun 9
Waxing Gibbous
Jun 12
Full
Jun 19
Last Quarter
Jun 27
New
Jul 5
First Quarter

Hourly Weather History & Observations

Time (PDT) Temp. Heat Index Dew Point Humidity Pressure Visibility Wind Dir Wind Speed Gust Speed Precip Events Conditions
12:53 AM 75.0 °F - 46.9 °F 37% 29.72 in 10.0 mi Calm Calm - N/A   Clear
1:53 AM 68.0 °F - 46.0 °F 45% 29.72 in 10.0 mi ENE 3.5 mph - N/A   Clear
2:53 AM 69.1 °F - 45.0 °F 42% 29.71 in 10.0 mi Calm Calm - N/A   Clear
3:53 AM 66.9 °F - 45.0 °F 45% 29.72 in 10.0 mi Calm Calm - N/A   Clear
4:53 AM 66.9 °F - 46.0 °F 47% 29.71 in 10.0 mi Calm Calm - N/A   Clear
5:53 AM 66.0 °F - 45.0 °F 47% 29.72 in 10.0 mi Calm Calm - N/A   Clear
6:53 AM 69.1 °F - 46.9 °F 45% 29.73 in 10.0 mi Calm Calm - N/A   Clear
8:53 AM 79.0 °F - 48.9 °F 35% 29.74 in 10.0 mi Calm Calm - N/A   Clear
9:53 AM 84.9 °F - 48.0 °F 28% 29.73 in 10.0 mi SSW 3.5 mph - N/A   Clear
10:53 AM 93.9 °F - 45.0 °F 18% 29.71 in 10.0 mi Calm Calm - N/A   Clear
1:53 PM 105.1 °F - 39.9 °F 11% 29.66 in 10.0 mi WSW 8.1 mph - N/A   Clear
2:53 PM 105.1 °F - 42.1 °F 12% 29.64 in 10.0 mi WSW 6.9 mph 18.4 mph N/A   Clear
4:53 PM 100.9 °F - 42.1 °F 13% 29.63 in 10.0 mi West 16.1 mph - N/A   Clear
5:53 PM 93.9 °F - 50.0 °F 22% 29.63 in 10.0 mi West 13.8 mph - N/A   Clear
6:53 PM 89.1 °F 86.9 °F 54.0 °F 30% 29.64 in 10.0 mi West 13.8 mph - N/A   Clear
7:53 PM 84.0 °F - 48.0 °F 28% 29.65 in 10.0 mi WNW 15.0 mph - N/A   Clear
8:53 PM 79.0 °F - 45.0 °F 30% 29.67 in 10.0 mi NW 8.1 mph - N/A   Clear
9:53 PM 75.0 °F - 46.9 °F 37% 29.69 in 10.0 mi NW 6.9 mph - N/A   Clear
10:53 PM 73.0 °F - 48.0 °F 41% 29.69 in 10.0 mi NW 6.9 mph - N/A   Clear
11:53 PM 72.0 °F - 53.1 °F 51% 29.69 in 10.0 mi WNW 5.8 mph - N/A   Clear